Regional Weather Roundup
Issued by NWS Kansas City/Pleasant Hill, MO

Home | Current Version | Previous Version | Graphics & Text | Print | Product List | Glossary Off
Versions: 1 2 3 4 5 6 7 8 9 10 11 12 13 14 15 16 17 18 19 20 21 22 23 24 25 26 27 28 29 30 31 32 33 34 35 36 37 38 39 40 41 42 43 44 45 46 47 48 49 50

000
ASUS43 KEAX 030910
RWREAX

WEATHER ROUNDUP FOR EASTERN KANSAS AND NORTHWEST MISSOURI
NATIONAL WEATHER SERVICE KANSAS CITY/PLEASANT HILL MO
400 AM CDT FRI JUL 03 2015

KSZ040-057-103>105-MOZ028-029-037-043-031000-
...KANSAS CITY METROPOLITAN AREA...

CITY           SKY/WX    TMP DP  RH WIND       PRES   REMARKS
K.C. INTL      MOCLDY    66  63  90 NE8       29.93S
K.C. DOWNTOWN  CLOUDY    68  62  81 NE6       29.92R
LEES SUMMIT    CLOUDY    67  60  78 E6        29.92F
OLATHE - IXD   CLOUDY    67  66  97 E6        29.92S
OLATHE - OJC   LGT RAIN  67  65  93 E7        29.91F
LAWRENCE       LGT RAIN  68  66  93 E3        29.91F FOG

$$

MOZ001>008-011>017-020>025-030>033-038>040-044>046-053-054-031000-
...NORTHERN AND CENTRAL MISSOURI...

CITY           SKY/WX    TMP DP  RH WIND       PRES   REMARKS
ST. JOSEPH     CLOUDY    65  61  87 N3        29.94S
MOSBY          PTSUNNY   64  61  88 CALM      29.93S
WARRENSBURG    CLOUDY    64  61  88 N6        29.92S
WHITEMAN AFB   MOCLDY    67  64  90 NE5       29.91S
CLINTON        MOCLDY    68  64  88 NE6       29.91F
SEDALIA        MOCLDY    67  62  84 CALM      29.93S
WARSAW         CLOUDY    66  64  94 CALM      29.92S
CHILLICOTHE      N/A     62  60  93 N3        29.96S
KIRKSVILLE     LGT RAIN  63  60  90 N5        29.95F

$$

MOZ041-047>049-056>058-063>065-088>090-097-031000-
...EASTERN AND SOUTHERN MISSOURI...

CITY           SKY/WX    TMP DP  RH WIND       PRES   REMARKS
ST. LOUIS INTL MOCLDY    68  61  78 NW3       29.90S
SPIRIT OF STL  CLOUDY    67  64  90 W5        29.89R
COLUMBIA       CLOUDY    66  62  87 NE5       29.92S
JEFFERSON CITY CLOUDY    67  62  84 NE3       29.91F
MEXICO         MOCLDY   N/A N/A N/A CALM      29.92F
ROLLA          CLOUDY    66  63  90 E5        29.91R
OSAGE BEACH    CLOUDY    68  64  88 CALM      29.91S
SPRINGFIELD    CLOUDY    71  69  93 CALM      29.91R FOG
BRANSON        PTCLDY    66  66 100 CALM      29.93R
JOPLIN         MOCLDY    71  69  93 SW3       29.91S
WEST PLAINS    MOCLDY    70  67  90 NE3       29.92S
MALDEN         LGT RAIN  73  70  88 NW6       29.84F

$$

IAZ060-094-KSZ022-034>040-054-083-096-NEZ052-066-093-031000-
...KANSAS...SOUTHEAST NEBRASKA AND IOWA...

CITY           SKY/WX    TMP DP  RH WIND       PRES   REMARKS
TOPEKA         CLOUDY    69  67  93 E7        29.91S FOG
MANHATTAN      CLOUDY    70  69  97 NE7       29.91F FOG
EMPORIA        PTCLDY    67  66  97 CALM      29.91S
CHANUTE        MOCLDY    69  68  96 NE6       29.90S FOG
WICHITA        PTCLDY    68  66  93 CALM      29.91F
OMAHA          PTCLDY    58  56  93 N5        29.99S
LINCOLN        CLOUDY    66  62  87 NE9       29.98S
FALLS CITY     CLOUDY    64  60  87 E7        29.94F
LAMONI         MOCLDY    61  58  90 NE5       29.96F
DES MOINES     MOCLDY    61  54  77 NE3       29.98S

$$




USA.gov is the U.S. government's official web portal to all federal, state and local government web resources and services.